This is the latest recevied weather packets stored in our database for station/object KG2V. If no packets are shown the sender has not sent any weather packets the latest 10 day(s).
| Time | Temp. | Humidity | Pressure | Rain* | Wind** | Luminosity | Snow |
|---|---|---|---|---|---|---|---|
| 1777737331 | 8.33° C | 54% | 1010.4 hPa | 0 mm | - | 807 W/m² | - |
| 1777737027 | 7.22° C | 57% | 1010.4 hPa | 0 mm | - | 359 W/m² | - |
| 1777736723 | 7.78° C | 54% | 1010.2 hPa | 0 mm | - | 202 W/m² | - |
| 1777735792 | 7.78° C | 58% | 1010.4 hPa | 0 mm | - | 272 W/m² | - |
| 1777735490 | 7.78° C | 52% | 1010.4 hPa | 0 mm | - | 173 W/m² | - |
| 1777735187 | 7.22° C | 59% | 1010.3 hPa | 0 mm | - | 605 W/m² | - |
| 1777734884 | 6.67° C | 60% | 1010.6 hPa | 0 mm | - | 155 W/m² | - |
| 1777734581 | 7.22° C | 59% | 1010.4 hPa | 0 mm | - | 223 W/m² | - |
| 1777734278 | 6.67° C | 57% | 1010.4 hPa | 0 mm | - | 351 W/m² | - |
| 1777733974 | 7.22° C | 57% | 1010.3 hPa | 0 mm | - | 398 W/m² | - |
| 1777733671 | 6.67° C | 60% | 1010.1 hPa | 0 mm | - | 389 W/m² | - |
| 1777733367 | 7.22° C | 60% | 1010.4 hPa | 0 mm | - | 348 W/m² | - |
| 1777733064 | 6.67° C | 61% | 1010.6 hPa | 0 mm | - | 113 W/m² | - |
| 1777732760 | 6.11° C | 66% | 1010.6 hPa | 0 mm | - | 287 W/m² | - |
| 1777732457 | 6.11° C | 67% | 1010.6 hPa | 0 mm | - | 125 W/m² | - |
| 1777732155 | 6.67° C | 66% | 1010.6 hPa | 0 mm | - | 228 W/m² | - |
| 1777731851 | 6.11° C | 68% | 1010.5 hPa | 0 mm | - | 149 W/m² | - |
| 1777731548 | 6.11° C | 68% | 1010.5 hPa | 0 mm | - | 346 W/m² | - |
| 1777731246 | 5.56° C | 71% | 1010.5 hPa | 0 mm | - | 179 W/m² | - |
| 1777730944 | 5.56° C | 71% | 1010.5 hPa | 0 mm | - | 199 W/m² | - |
| 1777730642 | 6.11° C | 74% | 1010.6 hPa | 0 mm | - | 69 W/m² | - |
| 1777730337 | 5.56° C | 70% | 1010.7 hPa | 0 mm | - | 183 W/m² | - |
| 1777730034 | 5° C | 73% | 1010.7 hPa | 0 mm | - | 97 W/m² | - |
| 1777729730 | 5° C | 72% | 1010.6 hPa | 0 mm | - | 94 W/m² | - |
| 1777729428 | 5° C | 75% | 1010.8 hPa | 0 mm | - | 95 W/m² | - |
* Rain latest hour (hover to see other rain measurements)
** Current wind speed in m/s (hover to see current wind gust speed)